sat.trackr.live / text

‹ back to catalog

STARLINK-33819

NORAD 63494 · 2025-071B

PAYLOAD ACTIVE UNKNOWN

§ Identity

Operator
Country
US
Launch date
2025-04-07
Launch site
AFWTR
Launch vehicle
Mass (kg)
RCS (m²)

Purposes: comms

External: N2YO · Heavens-Above · Gunter

§ Orbital elements

Epoch: 2026-05-25T03:44:57.644736Z

Period
93.37 min
Inclination
53.1578°
Eccentricity
0.0000859
Mean motion
15.42172302 rev/d
Perigee alt
439.1 km
Apogee alt
440.3 km
Semi-major
6,817.8 km
B*
4.6252e-4
RAAN
144.2962°
Arg perigee
63.3389°
Mean anomaly
296.7705°
Rev number
6,446

§ Raw data

STARLINK-338191 63494U 25071B   26145.15622274  .00019776  00000+0  46252-3 0  99992 63494  53.1578 144.2962 0000859  63.3389 296.7705 15.42172302 64462

JSON: /api/v1/satellites/63494 · /tle

For live sub-satellite position, see the globe view (requires WebGL).

§ Visibility from observer

Set your observer location to see the next 7 days of passes ≥ 10°. The values pass through the URL so the page stays shareable.

No JS? Fill the form by hand. The geolocation button needs JavaScript.